TimeAKDT,TemperatureF,Dew PointF,Humidity,Sea Level PressureIn,VisibilityMPH,Wind Direction,Wind SpeedMPH,Gust SpeedMPH,PrecipitationIn,Events,Conditions,WindDirDegrees,DateUTC
12:05 AM,35.1,33.1,92,29.74,5.0,SE,25.3,29.9,0.00,,Overcast,140,2014-03-28 08:05:00
12:53 AM,35.1,33.1,92,29.70,5.0,SSE,27.6,35.7,0.01,,Overcast,150,2014-03-28 08:53:00
1:53 AM,36.0,34.0,93,29.68,6.0,SSE,24.2,34.5,0.01,,Overcast,150,2014-03-28 09:53:00
2:53 AM,35.1,33.1,92,29.67,6.0,SE,23.0,34.5,0.01,,Overcast,140,2014-03-28 10:53:00
3:53 AM,35.1,34.0,96,29.65,5.0,SE,21.9,27.6,0.01,,Overcast,140,2014-03-28 11:53:00
4:30 AM,35.1,34.0,96,29.67,2.5,SE,20.7,-,0.00,,Overcast,140,2014-03-28 12:30:00
4:53 AM,35.1,34.0,96,29.63,3.0,SE,18.4,26.5,0.00,,Overcast,140,2014-03-28 12:53:00
5:25 AM,34.0,33.1,96,29.65,5.0,SE,18.4,-,0.03,Rain,Rain,140,2014-03-28 13:25:00
5:53 AM,34.0,33.1,96,29.62,6.0,SE,17.3,-,0.06,Rain,Rain,140,2014-03-28 13:53:00
6:53 AM,35.1,33.1,92,29.60,8.0,SSE,13.8,-,0.03,,Overcast,160,2014-03-28 14:53:00
7:53 AM,34.0,33.1,96,29.59,8.0,SSE,11.5,-,0.02,,Overcast,160,2014-03-28 15:53:00
8:53 AM,34.0,33.1,96,29.58,8.0,South,6.9,-,0.01,,Overcast,170,2014-03-28 16:53:00
8:59 AM,34.0,33.1,96,29.61,9.0,South,6.9,-,0.00,,Overcast,170,2014-03-28 16:59:00
9:14 AM,34.0,33.1,96,29.61,8.0,South,6.9,-,0.00,,Overcast,180,2014-03-28 17:14:00
9:34 AM,33.1,32.0,96,29.62,1.8,West,8.1,-,0.01,Snow,Light Snow,260,2014-03-28 17:34:00
9:41 AM,33.1,32.0,96,29.62,1.5,West,9.2,-,0.01,Snow,Light Snow,270,2014-03-28 17:41:00
9:51 AM,33.8,32.0,93,29.62,1.8,WNW,11.5,-,0.02,Snow,Light Snow,290,2014-03-28 17:51:00
9:53 AM,33.1,32.0,96,29.59,1.8,West,10.4,-,0.02,Snow,Light Snow,280,2014-03-28 17:53:00
9:58 AM,33.1,32.0,96,29.62,2.0,WNW,10.4,-,0.00,Snow,Light Snow,290,2014-03-28 17:58:00
10:26 AM,33.1,32.0,96,29.62,3.0,WNW,8.1,-,0.00,Snow,Light Snow,290,2014-03-28 18:26:00
10:53 AM,34.0,33.1,96,29.60,7.0,WNW,8.1,-,0.00,,Overcast,300,2014-03-28 18:53:00
11:13 AM,34.0,33.1,96,29.63,8.0,WNW,6.9,-,N/A,,Overcast,300,2014-03-28 19:13:00
11:22 AM,34.0,33.1,96,29.63,5.0,WNW,8.1,-,N/A,,Overcast,300,2014-03-28 19:22:00
11:33 AM,35.1,33.1,92,29.63,9.0,WNW,10.4,-,N/A,,Overcast,300,2014-03-28 19:33:00
11:44 AM,34.0,33.1,96,29.63,10.0,NW,9.2,-,N/A,,Overcast,310,2014-03-28 19:44:00
11:53 AM,34.0,33.1,96,29.60,10.0,NW,10.4,-,N/A,,Overcast,310,2014-03-28 19:53:00
12:10 PM,35.1,33.1,92,29.63,10.0,NW,10.4,-,N/A,,Overcast,310,2014-03-28 20:10:00
12:39 PM,35.1,33.1,92,29.63,10.0,NW,10.4,-,N/A,,Overcast,310,2014-03-28 20:39:00
12:53 PM,35.1,33.1,92,29.60,10.0,WNW,10.4,-,N/A,,Overcast,300,2014-03-28 20:53:00
1:11 PM,35.1,33.1,92,29.63,10.0,NW,10.4,-,N/A,,Overcast,310,2014-03-28 21:11:00
1:53 PM,35.1,33.1,92,29.60,7.0,WNW,9.2,-,N/A,,Overcast,290,2014-03-28 21:53:00
2:01 PM,35.1,32.0,89,29.64,9.0,WNW,9.2,-,N/A,,Overcast,290,2014-03-28 22:01:00
2:53 PM,37.0,34.0,89,29.61,8.0,West,9.2,-,N/A,,Overcast,280,2014-03-28 22:53:00
3:27 PM,37.0,33.1,86,29.64,10.0,West,13.8,-,N/A,,Mostly Cloudy,280,2014-03-28 23:27:00
3:45 PM,37.0,33.1,86,29.64,10.0,West,16.1,-,N/A,,Mostly Cloudy,280,2014-03-28 23:45:00
3:53 PM,37.0,33.1,86,29.61,10.0,West,15.0,-,N/A,,Mostly Cloudy,280,2014-03-28 23:53:00
4:14 PM,37.0,33.1,86,29.64,10.0,WNW,13.8,-,N/A,,Overcast,290,2014-03-29 00:14:00
4:53 PM,36.0,30.9,82,29.61,10.0,WNW,12.7,-,N/A,,Overcast,290,2014-03-29 00:53:00
5:53 PM,37.0,32.0,82,29.61,10.0,West,16.1,-,N/A,,Mostly Cloudy,280,2014-03-29 01:53:00
6:06 PM,37.0,32.0,82,29.64,10.0,West,16.1,-,N/A,,Mostly Cloudy,280,2014-03-29 02:06:00
6:38 PM,36.0,32.0,86,29.64,9.0,West,12.7,-,N/A,,Mostly Cloudy,280,2014-03-29 02:38:00
6:53 PM,36.0,30.9,82,29.61,10.0,WNW,12.7,-,N/A,,Mostly Cloudy,290,2014-03-29 02:53:00
7:21 PM,36.0,32.0,86,29.64,10.0,WNW,10.4,-,N/A,,Mostly Cloudy,300,2014-03-29 03:21:00
7:32 PM,36.0,30.9,82,29.64,10.0,WNW,12.7,-,N/A,,Mostly Cloudy,290,2014-03-29 03:32:00
7:53 PM,36.0,30.9,82,29.61,10.0,WNW,10.4,-,N/A,,Mostly Cloudy,300,2014-03-29 03:53:00
8:53 PM,36.0,30.0,79,29.62,10.0,WNW,11.5,-,N/A,,Partly Cloudy,300,2014-03-29 04:53:00
9:53 PM,34.0,28.9,82,29.63,10.0,WNW,13.8,-,N/A,,Clear,290,2014-03-29 05:53:00
10:22 PM,34.0,28.9,82,29.68,10.0,WNW,12.7,-,N/A,,Mostly Cloudy,300,2014-03-29 06:22:00
10:32 PM,34.0,28.9,82,29.68,10.0,WNW,11.5,-,N/A,,Scattered Clouds,300,2014-03-29 06:32:00
10:53 PM,35.1,30.0,82,29.65,10.0,WNW,10.4,-,0.00,Snow,Light Snow,300,2014-03-29 06:53:00
11:14 PM,35.1,30.0,82,29.68,10.0,WNW,12.7,-,0.00,,Overcast,290,2014-03-29 07:14:00
11:40 PM,35.1,30.0,82,29.69,10.0,WNW,11.5,-,0.00,,Mostly Cloudy,300,2014-03-29 07:40:00
11:53 PM,34.0,30.0,85,29.66,10.0,WNW,11.5,-,0.00,,Mostly Cloudy,300,2014-03-29 07:53:00